"Pseudo-MPEC" for C5ZCQ42

Created 2021 Sep 16 20:07:09 UT using Find_Orb

Click here for an explanation of pseudo-MPECs

 
 Astrometry: 
     C5ZCQ42  C2021 09 15.26156523 00 15.23 +34 36 23.3    ~9F77 20.27GVNEOCPG96
     C5ZCQ42  C2021 09 15.26690423 00 16.56 +34 35 05.5    ~9F77 20.19GVNEOCPG96
     C5ZCQ42  C2021 09 15.27758723 00 19.24 +34 32 28.6    ~9F77 20.35GVNEOCPG96
     C5ZCQ42  C2021 09 15.46936023 01 11.68 +33 42 57.6    ~9FBb 20.04GVNEOCPG96
     C5ZCQ42  C2021 09 15.47188323 01 12.50 +33 42 17.2    ~9FBb 20.43GVNEOCPG96
     C5ZCQ42  C2021 09 15.47343323 01 13.00 +33 41 52.3    ~9FBb 20.68GVNEOCPG96
     C5ZCQ42  C2021 09 15.47384623 01 13.12 +33 41 45.1    ~9FBb 20.79GVNEOCPG96
     C5ZCQ42 mC2021 09 16.26992723 06 34.87 +29 53 16.3    ~9G6q 20.61GVNEOCPG96
     C5ZCQ42 mC2021 09 16.27008423 06 34.91 +29 53 13.0    ~9G6q 19.77GVNEOCPG96
     C5ZCQ42 mC2021 09 16.27024223 06 34.92 +29 53 10.0    ~9G6q 20.08GVNEOCPG96
     C5ZCQ42 mC2021 09 16.27039923 06 34.98 +29 53 07.1    ~9G6q 20.37GVNEOCPG96

Station data:
(G96) Mt. Lemmon Survey  (N32.442754 W110.788720)  US/Arizona.  Observers T.
   A. Pruyne, B. M. Africano, E. J. Christensen, G. A. Farneth, D. C. Fuls,
   A. R. Gibbs, A. D. Grauer, H. Gröller, J. A. Johnson, R. A. Kowalski, S.
   M. Larson, G. J. Leonard, D. Rankin, R. L. Seaman, F. C. Shelly. 1.5-m
   reflector + 10K CCD.

Orbital elements:  C5ZCQ42
   Perihelion 2021 Dec 6.339680 +/- 0.0663594 TT =  8:09:08 (JD 2459554.839680)
Epoch 2021 Sep 16.0 TT = JDT 2459473.5   Earth MOID: 0.0194   AutoNEOCP
M 285.97229383 +/- 0.0885866        (J2000 ecliptic)
n   0.91010569 +/- 0.00034733       Peri.  265.74380 +/- 0.0626851
a   1.05456858 +/- 0.000268302      Node   176.72793 +/- 0.0019621
e   0.1342247 +/- 0.000293428       Incl.   17.24815 +/- 0.0263770
P   1.08/395.55d           H 26.4   G  0.15   U  7.4  
q 0.91301938 +/- 0.000161628    Q 1.19611777 +/- 0.00059171
From 11 observations 2021 Sept. 15-16 (24.2 hr); mean residual 0".17
Residuals in arcseconds: 
210915 G96  .11-  .21-    210915 G96  .06+  .13+    210916 G96  .18+  .12-    
210915 G96  .09-  .08+    210915 G96  .10+  .32+    210916 G96  .31-  .08-    
210915 G96  .21+  .14+    210915 G96  .06-  .20-    210916 G96  .15-  .03+    
210915 G96  .11-  .27-    210916 G96  .28+  .17+    

Ephemerides (geocentric):
Date (UTC) HH   RA              Dec         delta   r     elong  mag " sig PA
---- -- -- --  -------------   -----------  ------ ------ -----  --- ---- ---
2021 09 16 20  23 10 34.821   +26 38 00.93  .03084 1.0321 150.2 20.2 .267   5
2021 09 16 21  23 10 53.611   +26 22 17.80  .03067 1.0320 150.5 20.1 .301   4
2021 09 16 22  23 11 12.535   +26 06 23.47  .03049 1.0319 150.8 20.1 .336   3
2021 09 16 23  23 11 31.595   +25 50 17.79  .03031 1.0318 151.1 20.1 .374   2
2021 09 17 00  23 11 50.793   +25 34 00.62  .03014 1.0317 151.4 20.1 .413   2
2021 09 17 01  23 12 10.128   +25 17 31.79  .02996 1.0316 151.6 20.1 .455   1
2021 09 17 02  23 12 29.603   +25 00 51.17  .02979 1.0315 151.9 20.0 .499   1
2021 09 17 03  23 12 49.220   +24 43 58.59  .02962 1.0314 152.2 20.0 .545   0
2021 09 17 04  23 13 08.978   +24 26 53.90  .02945 1.0313 152.5 20.0 .594   0
2021 09 17 05  23 13 28.881   +24 09 36.94  .02928 1.0312 152.8 20.0 .645 179
2021 09 17 06  23 13 48.928   +23 52 07.56  .02911 1.0311 153.2 19.9 .699 179
2021 09 17 07  23 14 09.122   +23 34 25.60  .02894 1.0310 153.5 19.9 .755 179
2021 09 17 08  23 14 29.464   +23 16 30.89  .02877 1.0310 153.8 19.9 .814 178
2021 09 17 09  23 14 49.955   +22 58 23.29  .02860 1.0309 154.1 19.9 .875 178
2021 09 17 10  23 15 10.597   +22 40 02.63  .02843 1.0308 154.4 19.9 .940 178
2021 09 17 11  23 15 31.392   +22 21 28.75  .02827 1.0307 154.7 19.8 1.01 177
2021 09 17 12  23 15 52.340   +22 02 41.49  .02810 1.0306 155.1 19.8 1.08 177
2021 09 17 13  23 16 13.444   +21 43 40.69  .02794 1.0305 155.4 19.8 1.15 177
2021 09 17 14  23 16 34.704   +21 24 26.18  .02777 1.0304 155.8 19.8 1.23 177
2021 09 17 15  23 16 56.123   +21 04 57.81  .02761 1.0303 156.1 19.7 1.31 176
2021 09 17 16  23 17 17.702   +20 45 15.41  .02745 1.0302 156.4 19.7 1.39 176
2021 09 17 17  23 17 39.443   +20 25 18.83  .02729 1.0301 156.8 19.7 1.47 176
2021 09 17 18  23 18 01.347   +20 05 07.90  .02713 1.0300 157.1 19.7 1.56 176
2021 09 17 19  23 18 23.415   +19 44 42.46  .02697 1.0299 157.5 19.7 1.66 175
2021 09 17 20  23 18 45.650   +19 24 02.35  .02682 1.0298 157.9 19.6 1.75 175
2021 09 17 21  23 19 08.054   +19 03 07.42  .02666 1.0297 158.2 19.6 1.85 175
2021 09 17 22  23 19 30.627   +18 41 57.50  .02651 1.0296 158.6 19.6 1.96 175
2021 09 17 23  23 19 53.372   +18 20 32.44  .02635 1.0295 159.0 19.6 2.07 175
2021 09 18 00  23 20 16.290   +17 58 52.09  .02620 1.0294 159.4 19.5 2.18 174
2021 09 18 01  23 20 39.383   +17 36 56.29  .02605 1.0293 159.7 19.5 2.30 174
2021 09 18 02  23 21 02.653   +17 14 44.89  .02590 1.0293 160.1 19.5 2.42 174
2021 09 18 03  23 21 26.102   +16 52 17.73  .02575 1.0292 160.5 19.5 2.54 174
2021 09 18 04  23 21 49.731   +16 29 34.68  .02560 1.0291 160.9 19.4 2.67 174
2021 09 18 05  23 22 13.543   +16 06 35.59  .02545 1.0290 161.3 19.4 2.80 174
2021 09 18 06  23 22 37.538   +15 43 20.32  .02531 1.0289 161.7 19.4 2.94 173
2021 09 18 07  23 23 01.720   +15 19 48.72  .02516 1.0288 162.1 19.4 3.08 173
2021 09 18 08  23 23 26.090   +14 56 00.67  .02502 1.0287 162.5 19.3 3.23 173
2021 09 18 09  23 23 50.650   +14 31 56.03  .02488 1.0286 163.0 19.3 3.38 173
2021 09 18 10  23 24 15.402   +14 07 34.68  .02474 1.0285 163.4 19.3 3.54 173
2021 09 18 11  23 24 40.347   +13 42 56.48  .02460 1.0284 163.8 19.2 3.70 173
2021 09 18 12  23 25 05.489   +13 18 01.34  .02446 1.0283 164.2 19.2 3.87 173
2021 09 18 13  23 25 30.828   +12 52 49.12  .02432 1.0282 164.7 19.2 4.04 173
2021 09 18 14  23 25 56.368   +12 27 19.73  .02419 1.0281 165.1 19.2 4.22 173
2021 09 18 15  23 26 22.109   +12 01 33.06  .02406 1.0280 165.6 19.1 4.40 172
2021 09 18 16  23 26 48.055   +11 35 29.02  .02392 1.0279 166.0 19.1 4.59 172
2021 09 18 17  23 27 14.208   +11 09 07.51  .02379 1.0278 166.5 19.1 4.78 172
2021 09 18 18  23 27 40.569   +10 42 28.46  .02366 1.0277 166.9 19.1 4.98 172
2021 09 18 19  23 28 07.140   +10 15 31.79  .02354 1.0276 167.4 19.0 5.19 172